NANOSAT-1

Last updated on Fri Jun 19 2026 17:09:51 GMT+0000 (Coordinated Universal Time)

1 28493U 04049B 26170.33232627 .00000765 00000+0 10808-3 0 9994 2 28493 98.2279 307.0456 0002755 292.4922 67.5997 14.80163099155767
UTC large
Height (km)
Speed (km/s)
/
Latitude / Longitude
Inclination (degrees)
Orbital Period (minutes)
Azimuth
Elevation
Range (km)
Doppler Factor

Next 0 passes for location: London (51.5072 / 0.1276)

Sorry there are no passes over London.
NANOSAT-1